Location: Recife
(8.0585°S, 34.8848°W)
Time: 10:16:45
(UTC-03:00)

S-56A Canister/Altair - Pass Details

Date: 14 April 2026
Orbit: 633 x 2484 km, 38.9° (Epoch: 20 May)

Event Time Altitude Azimuth Distance (km) Brightness Sun altitude
Rises 00:54:21 0° 230° (SW) 3,363 - -66.6°
Reaches altitude 10° 00:56:29 10° 230° (SW) 2,581 - -66.1°
Maximum altitude 01:02:39 88° 316° (NW) 1,174 - -64.6°
Exits shadow 01:12:05 10° 48° (NE) 3,838 11.3 -62.3°
Drops below altitude 10° 01:12:10 10° 48° (NE) 3,869 11.3 -62.2°
Sets 01:16:02 0° 48° (NE) 5,151 12.1 -61.3°
